Location: Chippewa Lake
(41.0698°N, 81.9010°W)
Time: 02:12:56
(UTC+00:00)

Meteor 1-11 Rocket - Pass Details

Date: 09 May 2021
Orbit: 830 x 916 km, 81.2° (Epoch: 24 June)

Event Time Altitude Azimuth Distance (km) Brightness Sun altitude
Rises 03:44:02 0° 349° (N) 3,563 8.1 -27.1°
Reaches altitude 10° 03:46:32 10° 349° (N) 2,616 7.2 -27.3°
Maximum altitude 03:52:32 85° 263° (W) 920 3.7 -27.8°
Enters shadow 03:52:52 80° 200° (SSW) 930 3.7 -27.8°
